Startseite
Über Mich
AHP4
Galerie
Sehschlangen
Tourenbuch
Bookmarks
Elektronik
Bewertung
Geschichten
[Tagesmessung] [Jahreswerte] [Information]

Messwerte vom 13.02.2022

Die letzten Messwerte von 23:58:46 Uhr:
KategorieMesswert
Temperatur [°C]5
Luftdruck [mBar]991
Sonneneinstrahlung0
Wind [km/h]4 aus Ost
Niederschlag [l/m²]0
rel.Luftfeucht.79.7%
CO2 [ppm]650

Diagramme
Messwerte vom 13.02.2022
Tagesaggregation
KategorieMinimumMaximumSchnittSumme
Temperatur [°C]-3113.1792
Luftdruck [mBar]9911006998.4063
Sonneneinstrahlung24483.8708
Wind [km/h]17
rF [%]41.896.676.71
Niederschlag [l/m²]0
CO2 [ppm]397659471.2
Einordnung alsFrosttag
Vegetationstag

Messungen an benachbarten Tagen: Zur Jahresaggregation 2022
Tabelle aller Messwerte
UhrzeitTemperatur [°C]Luftdruck [mBar]SonneWind [km/h]RichtungRegen [l/m²]rF [%]CO2 [ppm]
00:01:47 0 1005 0 2 S 0 90 428
00:04:46 0 1006 0 2 SW 0 89.8 433
00:07:46 0 1005 0 3 S 0 89.7 434
00:10:46 0 1006 0 4 S 0 89.6 431
00:13:46 0 1006 0 2 SO 0 89.6 445
00:16:47 0 1005 0 2 SW 0 89.8 451
00:19:49 0 1005 0 0 SO 0 90.1 454
00:22:48 0 1006 0 0 SO 0 90.2 450
00:25:49 0 1006 0 0 SO 0 90.1 459
00:28:46 0 1005 0 1 S 0 90.1 466
00:31:48 0 1005 0 5 SO 0 90.5 477
00:34:48 0 1006 0 6 SO 0 90.5 477
00:37:47 0 1005 0 7 S 0 90.4 480
00:40:49 0 1005 0 2 SW 0 90.2 478
00:43:47 0 1005 0 4 S 0 90.1 486
00:46:46 0 1005 0 0 O 0 89.9 485
00:49:47 0 1006 0 1 SO 0 89.8 489
00:52:44 0 1005 0 1 S 0 89.7 491
00:55:46 0 1005 0 0 S 0 90 498
00:58:47 0 1005 0 1 NO 0 90.1 497
01:01:46 0 1005 0 1 S 0 90.2 500
01:04:49 0 1006 0 0 SO 0 90.1 494
01:07:47 0 1005 0 1 SO 0 90.1 489
01:10:47 0 1005 0 1 SO 0 90 492
01:13:47 0 1006 0 0 SO 0 90 496
01:16:49 0 1005 0 2 SO 0 89.9 495
01:19:47 0 1005 0 0 SO 0 90.1 503
01:22:47 0 1004 0 4 SW 0 90.1 502
01:25:45 0 1005 0 1 SO 0 90.2 501
01:28:47 0 1005 0 1 SO 0 90.1 512
01:31:49 0 1005 0 0 NW 0 89.8 515
01:34:46 0 1004 0 1 S 0 89.6 521
01:37:45 0 1005 0 0 SO 0 89.1 521
01:40:48 0 1003 0 0 SO 0 88.8 520
01:43:47 0 1004 0 2 SO 0 88.8 516
01:46:46 0 1004 0 0 S 0 88.6 513
01:49:46 0 1004 0 0 SW 0 88.5 518
01:52:46 0 1004 0 1 SO 0 88.4 522
01:55:48 0 1005 0 2 SO 0 88.5 528
01:58:48 0 1004 0 0 SO 0 88.5 536
02:01:49 0 1004 0 1 SW 0 88.6 534
02:04:49 0 1004 0 0 SO 0 88.8 527
02:07:47 0 1004 0 4 SW 0 89 527
02:10:48 0 1004 0 0 SO 0 89 530
02:13:48 0 1003 0 0 SO 0 88.9 529
02:16:47 0 1004 0 0 SO 0 88.7 524
02:19:49 0 1004 0 0 SO 0 88.4 524
02:22:49 0 1003 0 0 SO 0 88.4 525
02:25:48 0 1004 0 0 SO 0 88.5 527
02:28:50 0 1004 0 4 SW 0 88.8 531
02:31:48 0 1004 0 1 SO 0 89.3 528
02:34:47 0 1004 0 2 SO 0 89.9 533
02:37:47 0 1003 0 2 S 0 90.1 528
02:40:49 0 1003 0 7 SO 0 89.6 530
02:43:47 1 1003 0 5 S 0 88.2 524
02:46:48 1 1003 0 6 SW 0 85.2 533
02:49:47 1 1003 0 4 S 0 84.8 537
02:52:46 2 1004 0 8 SO 0 83 539
02:55:46 2 1004 0 10 S 0 81.2 536
02:58:47 2 1003 0 3 0 79.8 530
03:01:48 2 1003 0 6 S 0 79.4 536
03:04:47 2 1003 0 3 S 0 79 539
03:07:45 2 1003 0 9 S 0 78.6 546
03:10:46 2 1003 0 2 O 0 78.6 544
03:13:46 2 1003 0 4 N 0 78.7 548
03:16:47 2 1003 0 1 S 0 78.7 545
03:19:45 2 1003 0 0 S 0 79.2 545
03:22:47 1 1003 0 2 S 0 79.8 550
03:25:49 1 1003 0 7 SW 0 80 548
03:28:47 1 1003 0 1 S 0 79.9 550
03:31:47 1 1003 0 2 SO 0 80 548
03:34:46 1 1002 0 0 S 0 80 551
03:37:46 1 1003 0 0 S 0 80 553
03:40:48 1 1002 0 3 S 0 80 548
03:43:47 1 1003 0 2 S 0 80.2 551
03:46:47 1 1002 0 1 S 0 80.2 544
03:49:49 1 1002 0 1 NW 0 80.7 545
03:52:46 1 1002 0 0 SO 0 80.9 547
03:55:48 1 1002 0 0 SO 0 81.2 554
03:58:48 1 1002 0 0 SO 0 81.5 559
04:01:47 1 1002 0 0 SO 0 81.6 556
04:04:46 1 1002 0 0 S 0 82 556
04:07:46 0 1003 0 0 SW 0 82.5 554
04:10:48 0 1002 0 0 SO 0 82.8 557
04:13:47 0 1002 0 0 SO 0 83.3 561
04:16:48 0 1002 0 0 SO 0 83.6 553
04:19:47 0 1002 0 0 SO 0 83.7 554
04:22:47 0 1002 0 0 SO 0 83.9 558
04:25:48 -1 1002 0 0 SO 0 84.1 556
04:28:49 -1 1002 0 0 SO 0 84.4 554
04:31:48 -1 1002 0 0 SO 0 84.9 557
04:34:46 -1 1002 0 0 SO 0 85.1 557
04:37:48 -1 1002 0 0 SO 0 85.3 554
04:40:47 -1 1002 0 0 SO 0 85.5 557
04:43:50 -1 1002 0 0 SO 0 85.7 559
04:46:47 -1 1002 0 0 SO 0 86.2 553
04:49:48 -1 1002 0 0 SO 0 86.4 550
04:52:48 -1 1002 0 0 SO 0 86.5 548
04:55:45 -1 1002 0 0 S 0 86.6 550
04:58:46 -1 1002 0 0 S 0 86.7 553
05:01:46 -1 1002 0 0 S 0 86.8 553
05:04:46 -1 1002 0 0 S 0 86.9 560
05:07:48 -1 1002 0 11 SW 0 87.4 562
05:10:49 -1 1002 0 0 SO 0 88.4 562
05:13:47 -1 1002 0 1 NO 0 88.8 559
05:16:47 -1 1002 0 0 SW 0 88.6 553
05:19:46 -1 1002 0 0 S 0 88.8 550
05:22:49 -1 1002 0 0 O 0 89 557
05:25:48 -1 1002 0 0 SO 0 88.9 563
05:28:47 -1 1002 0 0 SO 0 88.9 563
05:31:49 -1 1002 0 0 SO 0 88.4 560
05:34:47 -1 1002 0 0 S 0 87.9 559
05:37:48 -1 1002 0 1 SO 0 87.7 563
05:40:48 -1 1002 0 2 SO 0 87.7 562
05:43:48 -2 1002 0 1 S 0 87.9 559
05:46:47 -2 1002 0 1 N 0 88.3 553
05:49:48 -2 1002 0 1 NW 0 89.2 557
05:52:46 -2 1002 0 0 W 0 90 545
05:55:49 -2 1002 0 2 NW 0 90.1 559
05:58:47 -2 1002 0 0 N 0 90 562
06:01:46 -2 1001 0 0 N 0 90.1 571
06:04:47 -2 1002 0 0 SO 0 90.1 573
06:07:48 -2 1002 0 1 NW 0 90.2 568
06:10:50 -3 1002 0 1 NW 0 91 562
06:13:49 -3 1002 0 0 NW 0 92.1 560
06:16:47 -3 1002 0 0 NO 0 92.1 557
06:19:49 -3 1002 0 0 SO 0 92.6 560
06:22:47 -3 1001 0 1 SO 0 92.5 557
06:25:48 -3 1002 0 0 S 0 92.5 559
06:28:47 -3 1002 0 0 N 0 92.5 557
06:31:48 -3 1001 0 1 SO 0 92.6 560
06:34:51 -3 1000 0 0 SO 0 92.9 562
06:37:46 -3 1002 0 0 SO 0 92.9 564
06:40:48 -3 1001 0 0 NW 0 93.1 562
06:43:46 -3 1001 0 1 NW 0 93.7 551
06:46:49 -3 1000 0 0 W 0 94.2 550
06:49:46 -3 1001 0 2 N 0 94.7 553
06:52:46 -3 1001 0 0 SO 0 95 550
06:55:48 -3 1000 0 0 NO 0 94.7 554
06:58:46 -3 1001 0 0 N 0 94.5 554
07:01:45 -3 1001 0 0 N 0 94.6 556
07:04:48 -3 1001 0 1 NW 0 95 553
07:07:46 -3 1001 0 0 N 0 96 556
07:10:46 -3 1001 0 0 SO 0 96.1 559
07:13:48 -3 1001 4 0 SO 0 95.6 562
07:16:50 -3 1000 6 0 SO 0 95.2 559
07:19:49 -3 1001 11 0 SO 0 94.8 549
07:22:47 -3 1001 17 0 SO 0 94.8 545
07:25:46 -3 1001 24 0 W 0 94.8 547
07:28:47 -3 1000 34 3 0 95.5 542
07:31:46 -3 1000 45 0 N 0 96 547
07:34:51 -3 1000 58 0 NO 0 96.1 548
07:37:45 -3 1001 71 0 NO 0 96.1 541
07:40:48 -3 1001 82 1 NO 0 95.7 542
07:43:46 -3 1001 94 0 N 0 95.6 536
07:46:49 -3 1000 105 0 SO 0 95.8 550
07:49:47 -3 1001 117 0 N 0 95.8 550
07:52:48 -3 1000 126 1 SO 0 96.5 560
07:55:49 -3 1000 133 0 SO 0 96.3 551
07:58:49 -3 1001 139 0 SO 0 96 548
08:01:49 -3 1000 145 0 N 0 95.9 542
08:04:47 -3 1001 149 0 N 0 96.3 541
08:07:48 -3 1001 153 0 N 0 96.2 547
08:10:49 -3 1001 110 0 N 0 96.3 468
08:13:45 -3 1002 114 0 N 0 96.2 407
08:16:47 -3 1001 161 0 SO 0 96.3 404
08:19:48 -3 1001 164 0 N 0 96.3 404
08:22:47 -3 1001 167 0 N 0 96.1 428
08:25:48 -3 1001 167 0 SO 0 96.1 442
08:28:50 -3 1002 169 0 SO 0 96.1 448
08:31:47 -3 1001 171 0 N 0 96.2 419
08:34:49 -3 1001 172 1 NW 0 96.3 410
08:37:48 -3 1001 173 0 NO 0 96.3 406
08:40:47 -3 1001 174 0 O 0 96.6 403
08:43:48 -3 1002 174 0 N 0 96.5 415
08:46:50 -3 1001 175 0 NO 0 96.4 410
08:49:47 -3 1001 174 0 0 96.4 404
08:52:49 -2 1001 174 0 W 0 96.6 407
08:55:47 -2 1001 174 0 S 0 96.6 407
08:58:48 -2 1001 175 0 S 0 96.5 407
09:01:47 -2 1001 177 0 SO 0 96.4 407
09:04:49 -2 1000 178 0 NO 0 96.2 404
09:07:50 -2 1001 179 0 NO 0 96.1 407
09:10:49 -2 1000 180 0 NO 0 96.1 403
09:13:51 -2 1001 181 0 NO 0 96.1 405
09:16:48 -2 1001 182 0 SO 0 96 404
09:19:47 -2 1001 182 0 NO 0 96 404
09:22:48 -2 1001 183 0 NO 0 96.1 407
09:25:49 -2 1002 184 0 O 0 96.1 407
09:28:46 -2 1001 185 0 O 0 96 407
09:31:48 -2 1002 186 0 O 0 96 404
09:34:45 -2 1001 187 0 O 0 96.1 407
09:37:48 -2 1001 188 0 SO 0 96 404
09:40:48 -2 1001 189 0 NW 0 96.1 404
09:43:46 -1 1002 190 0 S 0 96.4 407
09:46:48 -1 1001 191 0 NO 0 96.2 407
09:49:48 -1 1001 192 0 NO 0 95.8 407
09:52:48 -1 1001 193 0 NO 0 95.8 403
09:55:46 -1 1001 194 0 O 0 95.7 407
09:58:47 -1 1001 195 0 O 0 95.5 406
10:01:48 -1 1001 195 1 SO 0 95.4 407
10:04:50 0 1001 196 0 SO 0 95.2 403
10:07:47 0 1001 196 1 SO 0 94.9 406
10:10:47 0 1001 197 0 SO 0 94 407
10:13:46 0 1001 198 0 S 0 93.5 404
10:16:47 1 1001 198 2 S 0 92.7 407
10:19:49 1 1000 198 1 SO 0 91.5 405
10:22:48 1 1000 199 2 S 0 90.5 407
10:25:47 1 1002 199 0 S 0 87.8 404
10:28:48 1 1000 198 1 S 0 87.5 405
10:31:48 1 1001 198 3 SW 0 86.9 406
10:34:49 1 1000 198 0 SO 0 85.5 404
10:37:45 1 1001 199 3 S 0 85 407
10:40:47 2 1001 199 0 S 0 84.1 407
10:43:46 2 1001 199 3 SO 0 84.1 407
10:46:48 2 1000 199 3 S 0 82.7 406
10:49:47 2 1000 200 1 SO 0 79.9 404
10:52:48 3 1000 200 3 SO 0 78.3 404
10:55:50 3 1001 200 4 SW 0 74.3 404
10:58:46 3 1001 201 3 S 0 74 407
11:01:48 3 999 202 13 SW 0 69.7 407
11:04:48 3 1000 202 6 O 0 69 404
11:07:47 4 1000 203 6 S 0 67.8 406
11:10:48 4 999 203 3 SW 0 67.4 406
11:13:47 4 1000 203 4 S 0 66.7 404
11:16:50 4 999 203 11 SO 0 67.6 405
11:19:46 4 1000 202 10 S 0 66.7 407
11:22:47 4 1000 202 5 W 0 65.4 404
11:25:47 4 1000 202 6 S 0 63.8 406
11:28:47 4 999 202 2 S 0 63.6 407
11:31:47 5 999 203 9 SW 0 63.3 406
11:34:47 5 1000 204 7 NW 0 62.1 405
11:37:48 5 999 205 14 S 0 62.6 407
11:40:45 5 999 206 3 S 0 61.4 407
11:43:46 5 999 206 7 S 0 62.4 407
11:46:46 5 999 207 6 S 0 60.7 406
11:49:51 5 999 207 7 SO 0 60.1 405
11:52:48 5 999 207 11 S 0 59.1 404
11:55:48 6 999 208 6 SO 0 58.4 408
11:58:47 6 999 209 6 S 0 58.3 407
12:01:47 7 999 209 3 W 0 56.1 404
12:04:47 7 999 210 6 SW 0 51.9 412
12:07:47 8 998 211 3 SW 0 53.9 404
12:10:49 9 999 212 2 SO 0 54.2 407
12:13:49 9 999 213 4 SW 0 47.8 404
12:16:46 10 999 214 8 SO 0 47.8 404
12:19:48 10 999 215 4 S 0 42.6 407
12:22:46 10 998 217 2 SW 0 43.1 407
12:25:47 10 999 218 4 SO 0 45.1 407
12:28:48 10 999 220 3 SW 0 44.8 407
12:31:47 10 998 221 1 O 0 44.5 404
12:34:48 11 999 222 2 NO 0 44.2 407
12:37:48 11 998 222 4 NW 0 43.9 405
12:40:47 11 998 222 4 S 0 43.3 405
12:43:48 11 998 222 1 SW 0 41.8 407
12:46:48 10 998 223 9 SO 0 42.4 404
12:49:49 10 998 223 12 SW 0 42.8 404
12:52:47 10 998 223 3 S 0 42.1 408
12:55:47 9 999 223 3 S 0 43.6 405
12:58:48 9 998 223 14 SO 0 44.8 407
13:01:47 9 998 223 7 SW 0 44.2 405
13:04:49 9 998 224 7 SO 0 45.9 404
13:07:47 9 998 224 2 S 0 46 407
13:10:47 9 998 224 3 SW 0 46.4 407
13:13:46 9 998 225 8 S 0 45.1 407
13:16:47 9 998 225 8 S 0 43.6 404
13:19:47 9 998 227 7 W 0 43.2 407
13:22:48 10 998 228 5 S 0 45.9 404
13:25:47 10 998 229 4 SO 0 46.2 401
13:28:46 10 998 228 3 S 0 46.7 407
13:31:49 10 998 228 5 S 0 44.5 409
13:34:49 10 998 229 4 S 0 44.2 401
13:37:50 10 998 229 1 SW 0 45.2 407
13:40:48 10 998 228 3 S 0 45.6 406
13:43:46 10 998 228 9 S 0 43.7 401
13:46:47 10 998 228 3 S 0 44.3 407
13:49:48 10 998 229 6 SW 0 43 406
13:52:47 10 998 231 4 SO 0 42.2 407
13:55:49 11 998 231 11 SO 0 43.6 407
13:58:48 11 998 232 13 SO 0 43.2 404
14:01:48 11 998 232 8 SO 0 42.2 403
14:04:47 10 998 233 6 SW 0 41.8 407
14:07:49 10 998 233 6 O 0 44.2 407
14:10:47 10 998 236 3 S 0 44.7 406
14:13:46 11 998 241 3 S 0 44.7 407
14:16:47 11 998 241 5 S 0 45 407
14:19:46 11 997 241 3 SO 0 43.7 404
14:22:47 11 998 241 12 W 0 43.3 404
14:25:47 11 997 241 17 S 0 42.8 407
14:28:49 11 997 241 8 S 0 44.8 407
14:31:50 10 997 243 6 SO 0 44.5 404
14:34:46 10 998 243 10 0 44.4 407
14:37:50 11 997 243 7 S 0 46.3 404
14:40:48 11 997 244 3 S 0 46.5 404
14:43:46 11 997 242 6 S 0 45.7 407
14:46:47 11 997 242 5 SW 0 43.9 407
14:49:48 11 997 240 9 S 0 44.4 404
14:52:47 11 997 241 10 SW 0 44.3 404
14:55:47 10 997 241 4 N 0 44.9 403
14:58:48 10 997 242 6 S 0 44.9 407
15:01:47 10 996 241 8 W 0 45.1 404
15:04:46 10 996 241 4 S 0 44.3 407
15:07:47 10 996 240 1 SO 0 48.1 406
15:10:46 10 996 239 4 SW 0 48.3 404
15:13:45 10 996 238 0 W 0 47.6 403
15:16:49 10 996 238 4 O 0 48.9 407
15:19:47 10 996 235 3 S 0 49.3 404
15:22:46 9 996 234 8 S 0 49.4 407
15:25:48 9 997 234 3 SO 0 49.7 404
15:28:46 9 996 231 4 S 0 50.4 407
15:31:49 9 996 229 5 SO 0 50 404
15:34:50 9 996 231 9 SO 0 49.8 404
15:37:49 9 996 229 9 SW 0 50.5 406
15:40:47 9 996 228 12 S 0 50.2 406
15:43:47 9 996 230 10 SW 0 51.1 407
15:46:49 9 995 229 6 SO 0 51.2 406
15:49:47 9 995 228 8 S 0 51.7 407
15:52:48 9 995 223 8 SO 0 52.4 404
15:55:49 9 995 222 9 O 0 52.7 404
15:58:48 9 995 223 8 S 0 52.6 404
16:01:47 9 995 222 3 SO 0 52.3 407
16:04:46 8 995 221 5 SO 0 53.4 404
16:07:47 8 995 221 1 S 0 53.9 407
16:10:48 8 995 222 9 S 0 55.2 404
16:13:46 8 996 219 7 S 0 55.7 404
16:16:48 8 995 218 9 SW 0 56.3 407
16:19:47 8 995 217 1 S 0 56.3 407
16:22:46 8 995 217 4 S 0 56.9 407
16:25:46 8 995 216 10 S 0 57.1 407
16:28:48 8 995 215 9 SO 0 57.6 403
16:31:48 8 995 213 1 SO 0 57.8 407
16:34:49 8 995 212 1 O 0 58.3 406
16:37:49 8 995 210 3 S 0 58.9 404
16:40:51 7 995 208 0 SO 0 59.2 406
16:43:46 7 995 206 0 O 0 59.5 406
16:46:48 7 995 204 1 SO 0 60 407
16:49:47 7 995 201 1 S 0 60.6 404
16:52:48 7 995 198 0 SO 0 61 406
16:55:48 7 995 195 2 SO 0 61.2 407
16:58:47 6 995 190 0 N 0 62 404
17:01:48 6 995 185 0 N 0 62.4 404
17:04:47 6 995 179 0 N 0 63 403
17:07:47 6 995 170 0 SO 0 64.1 407
17:10:48 6 995 160 0 N 0 64.8 407
17:13:47 6 995 148 1 SO 0 65.1 404
17:16:49 5 995 134 2 SO 0 65.6 406
17:19:45 5 995 119 1 S 0 65.6 404
17:22:46 5 995 105 1 O 0 66.4 407
17:25:48 5 995 92 0 SO 0 66.6 407
17:28:47 5 995 80 0 SO 0 67.3 407
17:31:48 5 995 68 1 SO 0 68.1 407
17:34:44 5 995 54 1 S 0 68.5 406
17:37:46 5 995 41 2 SO 0 69.3 404
17:40:47 5 995 29 0 O 0 69.9 407
17:43:47 5 995 19 3 SO 0 70 407
17:46:47 5 995 12 2 SO 0 70.2 404
17:49:45 5 995 7 0 N 0 70.2 404
17:52:45 5 995 4 0 O 0 70.3 406
17:55:46 5 995 0 3 SO 0 70.5 407
17:58:45 5 995 0 2 SO 0 71 407
18:01:45 5 995 0 4 O 0 71.7 407
18:04:46 5 995 0 4 S 0 71.3 407
18:07:47 5 995 0 3 NO 0 70.8 407
18:10:46 5 995 0 2 SW 0 70.6 404
18:13:47 6 995 0 8 S 0 70.4 404
18:16:46 6 995 0 8 S 0 70.4 407
18:19:46 6 995 0 4 S 0 70 406
18:22:48 6 995 0 4 S 0 70 404
18:25:47 6 995 0 4 SO 0 70.2 404
18:28:46 6 995 0 5 NO 0 70.3 399
18:31:47 6 995 0 3 SO 0 71 405
18:34:45 6 995 0 11 O 0 71.4 407
18:37:45 6 995 0 4 W 0 72 404
18:40:46 6 994 0 6 SO 0 72.5 407
18:43:46 6 995 0 3 S 0 73.2 407
18:46:48 6 994 0 5 SO 0 73.8 407
18:49:48 6 995 0 3 SO 0 73.9 406
18:52:46 6 994 0 6 S 0 74.1 404
18:55:46 5 995 0 8 SO 0 74 404
18:58:47 5 994 0 2 NW 0 73.9 407
19:01:46 5 995 0 4 S 0 74.6 404
19:04:45 5 995 0 3 W 0 75.3 406
19:07:47 5 994 0 2 SO 0 76.7 407
19:10:47 5 995 0 0 O 0 77.3 407
19:13:46 4 994 0 4 SW 0 77.9 407
19:16:45 4 994 0 4 S 0 78.5 401
19:19:47 4 995 0 8 SW 0 79.2 404
19:22:47 5 995 0 10 S 0 80 407
19:25:46 5 994 0 4 SO 0 80.3 407
19:28:43 5 994 0 5 S 0 80.3 406
19:31:45 5 994 0 1 O 0 79.7 407
19:34:47 4 994 0 3 S 0 79.7 408
19:37:47 4 994 0 0 S 0 80.5 404
19:40:46 4 994 0 1 SO 0 80.8 406
19:43:44 4 994 0 9 S 0 81.4 404
19:46:47 4 994 0 11 S 0 83.4 408
19:49:48 4 994 0 2 S 0 84.2 407
19:52:46 4 994 0 6 SW 0 84 397
19:55:46 5 993 0 5 SW 0 84.3 399
19:58:47 5 993 0 4 SO 0 84.1 408
20:01:44 5 994 0 8 S 0 83.6 407
20:04:44 5 994 0 7 S 0 83.5 401
20:07:44 5 994 0 3 O 0 84 407
20:10:48 5 993 0 6 S 0 83.6 408
20:13:45 5 994 0 9 S 0 83.6 413
20:16:47 5 994 0 3 O 0 83.9 412
20:19:47 5 993 0 4 SO 0 83.7 413
20:22:46 5 993 0 8 S 0 84 413
20:25:46 5 993 0 5 S 0 84.4 417
20:28:48 5 993 0 6 SW 0 84.5 410
20:31:48 5 993 0 10 SW 0 84.5 416
20:34:49 5 993 0 5 S 0 84.5 422
20:37:46 5 993 0 6 S 0 84.7 434
20:40:48 4 993 0 3 SO 0 84.8 434
20:43:45 4 994 0 11 SO 0 84.9 433
20:46:46 4 993 0 7 SO 0 85.3 430
20:49:48 4 993 0 5 SW 0 85.7 436
20:52:47 4 994 0 9 SW 0 85.7 442
20:55:46 4 993 0 8 SO 0 85.7 440
20:58:46 4 994 0 6 S 0 85.8 438
21:01:47 4 993 0 2 SW 0 85.6 447
21:04:48 4 993 0 7 S 0 85.6 459
21:07:46 4 993 0 8 S 0 85.8 456
21:10:44 4 994 0 5 S 0 85.7 456
21:13:47 4 993 0 4 O 0 85.5 459
21:16:45 4 993 0 3 S 0 85.5 468
21:19:46 4 993 0 9 SO 0 85.7 474
21:22:46 4 993 0 6 S 0 86.1 472
21:25:45 4 992 0 7 SW 0 86 473
21:28:45 4 993 0 2 S 0 85.7 471
21:31:48 4 992 0 10 SO 0 85.7 474
21:34:46 4 992 0 5 S 0 85.6 483
21:37:46 4 992 0 4 S 0 85.2 489
21:40:44 4 993 0 4 S 0 85.2 494
21:43:45 4 992 0 3 S 0 85.5 498
21:46:43 4 993 0 5 S 0 85.5 497
21:49:47 4 993 0 8 SW 0 85 500
21:52:46 4 992 0 5 S 0 84.6 500
21:55:44 4 993 0 6 S 0 84.2 503
21:58:44 4 992 0 9 S 0 84 503
22:01:47 4 992 0 9 S 0 83.6 506
22:04:45 4 992 0 3 S 0 83.4 612
22:07:48 5 992 0 6 O 0 83.2 611
22:10:51 5 992 0 3 O 0 82.9 604
22:13:48 5 992 0 4 N 0 82.4 603
22:16:49 5 992 0 12 SO 0 82.1 603
22:19:47 5 992 0 13 SW 0 81.9 605
22:22:46 5 991 0 9 S 0 81.1 606
22:25:46 5 991 0 5 S 0 80.6 612
22:28:48 5 991 0 13 SW 0 79.8 609
22:31:47 5 992 0 6 SW 0 79.1 614
22:34:44 5 992 0 6 S 0 79 618
22:37:47 5 991 0 4 NO 0 78.2 621
22:40:47 5 991 0 8 SO 0 78.1 615
22:43:47 5 991 0 5 SW 0 77.4 615
22:46:46 5 991 0 5 SO 0 77.4 612
22:49:47 5 991 0 6 S 0 77.1 615
22:52:44 5 991 0 9 SO 0 77.1 614
22:55:49 5 992 0 10 SO 0 77.1 623
22:58:46 5 991 0 6 S 0 77.2 618
23:01:46 5 991 0 6 SO 0 77.2 623
23:04:47 5 991 0 9 SW 0 77.3 620
23:07:46 5 991 0 4 S 0 77.5 624
23:10:46 5 991 0 5 SO 0 77.6 627
23:13:47 5 991 0 11 S 0 77.8 612
23:16:45 5 991 0 6 S 0 78.1 573
23:19:47 5 991 0 3 SO 0 78 571
23:22:45 5 991 0 6 SO 0 78 603
23:25:49 5 991 0 17 SO 0 78.1 635
23:28:46 5 991 0 2 SO 0 78.1 636
23:31:45 5 991 0 8 S 0 78.1 641
23:34:46 5 991 0 8 S 0 78.2 644
23:37:45 5 991 0 9 SW 0 78.3 647
23:40:48 5 991 0 3 SO 0 78.7 647
23:43:46 5 991 0 3 W 0 78.9 647
23:46:45 5 991 0 2 S 0 79.1 653
23:49:45 5 991 0 0 S 0 79.1 653
23:52:45 5 991 0 5 O 0 79.2 659
23:55:48 5 991 0 3 SO 0 79.5 647
23:58:46 5 991 0 4 O 0 79.7 650

Letzte Änderung : 04-Jan-2022
Copyright Jens Köhler, Wolfsburg, Obere Dorfstraße 10d